Skip Page Navigation
NASA JPL Caltech
NASA Logo - Jet Propulsion Laboratory + View the NASA Portal
+ Center for Near-Earth Object Studies
JPL Home Earth Solar System Stars & Galaxies Technology
JPL Solar System Dynamics
BODIES ORBITS EPHEMERIDES TOOLS PHYSICAL DATA DISCOVERY FAQ SITE MAP
JPL Small-Body Database Browser
Search: [ help ]  
150651 (2001 DR94)
Classification: Outer Main-belt Asteroid          SPK-ID: 2150651
Ephemeris | Orbit Diagram | Orbital Elements | Mission Design | Physical Parameters | Discovery Circumstances | Close-Approach Data ]

[ show orbit diagram ]
Orbital Elements at Epoch 2459200.5 (2020-Dec-17.0) TDB
Reference: JPL 14 (heliocentric ecliptic J2000)
 Element Value Uncertainty (1-sigma)   Units 
e .1287474206778952 3.3361e-08  
a 3.229139932790293 2.6152e-08 au
q 2.813396495435551 1.0731e-07 au
i 1.253390448929995 5.9044e-06 deg
node 175.9319769948701 0.00020936 deg
peri 292.6813010521424 0.00021134 deg
M 195.9668247274725 2.7811e-05 deg
tp 2460166.234876769657
(2023-Aug-09.73487677)
0.00016758 TDB
period 2119.477081751668
5.80
2.5748e-05
7.049e-08
d
yr
n .1698532166728944 2.0634e-09 deg/d
Q 3.644883370145034 2.952e-08 au
  Orbit Determination Parameters
   # obs. used (total)      528  
   data-arc span      7582 days (20.76 yr)  
   first obs. used      1998-09-01  
   last obs. used      2019-06-05  
   planetary ephem.      DE441  
   SB-pert. ephem.      SB441-N16  
   condition code      0  
   norm. resid. RMS      .53118  
   source      ORB  
   producer      Otto Matic  
   solution date      2021-Apr-13 19:19:27  

Additional Information
 Earth MOID = 1.83032 au 
 Jupiter MOID = 1.47698 au 
 T_jup = 3.173 
[ show covariance matrix ]

Ephemeris | Orbit Diagram | Orbital Elements | Mission Design | Physical Parameters | Discovery Circumstances | Close-Approach Data ]

Physical Parameter Table
Parameter Symbol Value Units Sigma Reference Notes
absolute magnitude H 15.2   n/a MPO436761  
diameter diameter 5.399 km 1.437 urn:nasa:pds:neowise_diameters_albedos::2.0[mainbelt] (http://adsabs.harvard.edu/abs/2011ApJ...741...68M)  
geometric albedo albedo 0.046   0.019 urn:nasa:pds:neowise_diameters_albedos::2.0[mainbelt] (http://adsabs.harvard.edu/abs/2011ApJ...741...68M)  

150651 (2001 DR94)          Discovered 2001-Feb-19 by Spacewatch at Kitt Peak
Reference: 20070303/Numbers.arcLast Updated: 2007-03-07

[ hide close-approach data ]
Close-Approach Data   ...sorted by Date/Time (TDB)
Date/Time (TDB) Time Uncertainty
(days_HH:MM)
Body Nominal Distance (au) Minimum Distance (au) Maximum Distance (au) V-relative (km/s) V-infinity (km/s) JD (TDB) Time Uncertainty (minutes) Semi-major axis (km) Semi-minor axis (km) range-LOV angle (deg) N-sigma BP Orbit Ref. Reference Modified
1999-Jan-21 10:50 < 00:01 Jupiter 1.74993364497716 1.74993276469758 1.74993452525644 2.72247989699441 2.53847086970855 2451199.951576030 0.790679137282275 60.4848916718177 18.840976473384 80.5588947750483 1459775.53990832 T 14 CATAB v2.0f-lin.ifort 2021-Apr-13 19:19:29 2021-Apr-13 19:19
2010-Jan-25 06:06 < 00:01 Jupiter 1.54640057829744 1.54639990254823 1.54640125404568 1.73761826342796 1.38702596726976 2455221.754477031 0.463592374318491 99.8679349149548 62.0794736617237 76.5200903138464 1413577.61387942 T 14 CATAB v2.0f-lin.ifort 2021-Apr-13 19:19:29 2021-Apr-13 19:19
2021-Mar-01 09:33 < 00:01 Jupiter 1.47679579451283 1.47679537241213 1.47679621661496 1.36097763514731 0.839733061249444 2459274.898086510 0.457113996393521 276.080254098196 151.693132668057 29.4421411811642 2162256.13866697 T 14 CATAB v2.0f-lin.ifort 2021-Apr-13 19:19:29 2021-Apr-13 19:19
2032-Apr-15 16:04 < 00:01 Jupiter 1.5520671244896 1.55206658555768 1.55206766342144 1.49072041779202 1.06337703387957 2463338.169433924 0.899173707704119 125.082786813812 87.0705566110235 43.3823397974544 2170355.44400151 T 14 CATAB v2.0f-lin.ifort 2021-Apr-13 19:19:29 2021-Apr-13 19:19
2043-May-15 07:58 00:01 Jupiter 1.75181516072083 1.75181413081452 1.75181619062634 2.0690006306335 1.8203683451575 2467384.832199384 1.42419173425405 62.6016883762655 10.1107353286771 89.2626793953857 1340531.8554922 T 14 CATAB v2.0f-lin.ifort 2021-Apr-13 19:19:29 2021-Apr-13 19:19
2153-Aug-01 20:41 00:04 Jupiter 1.75180179645307 1.75179928986655 1.75180430304198 2.74769652418514 2.56569797798153 2507640.361684001 4.30072417389822 182.100295953702 20.3755717437344 70.947897471342 1279007.03936702 T 14 CATAB v2.0f-lin.ifort 2021-Apr-13 19:19:29 2021-Apr-13 19:19
2164-Aug-04 21:46 00:04 Jupiter 1.53949363560017 1.53949202109268 1.5394952501053 1.7515488358126 1.40268751743378 2511661.407263291 4.28024857215368 226.166589944322 90.949256756738 -51.3601103964866 800043.130477105 T 14 CATAB v2.0f-lin.ifort 2021-Apr-13 19:19:29 2021-Apr-13 19:19
2175-Sep-10 16:19 00:04 Jupiter 1.46146408072829 1.46146365805749 1.46146450340068 1.35342285846628 0.820128652288843 2515715.179997903 4.34782544482921 353.032852379428 275.886485374633 -10.230242541601 1535730.33206972 T 14 CATAB v2.0f-lin.ifort 2021-Apr-13 19:19:29 2021-Apr-13 19:19
2186-Oct-26 01:16 00:05 Jupiter 1.52984425450654 1.52984242618881 1.52984608282732 1.45890388061339 1.01047951184682 2519778.552555659 4.94883497037899 403.613641452478 102.54933114858 41.3594218669574 1611605.41785129 T 14 CATAB v2.0f-lin.ifort 2021-Apr-13 19:19:29 2021-Apr-13 19:19
2197-Nov-23 13:49 00:06 Jupiter 1.72974110973203 1.72973777889663 1.7297444405581 2.04260001288339 1.78685519207102 2523825.075730878 5.79437932055635 74.5550865385744 10.0784519238289 -89.1196112192985 450264.420369588 T 14 CATAB v2.0f-lin.ifort 2021-Apr-13 19:19:29 2021-Apr-13 19:19
Ephemeris | Orbit Diagram | Orbital Elements | Mission Design | Physical Parameters | Discovery Circumstances | Close-Approach Data ]
ABOUT SSD CREDITS/AWARDS PRIVACY/COPYRIGHT GLOSSARY LINKS
FirstGov 2021-May-12 09:53 UT
(server date/time)  
NASA Home Page
Site Manager:   Ryan S. Park
Webmaster  Alan B. Chamberlin